Weather History for Pinedale, WY

Change the Weather History Date:

Sunday, February 17, 2013

  Actual Average (KBPI) Record (KBPI)
Temperature  
Mean Temperature 16 °F 15 °F  
Max Temperature 28 °F 29 °F 44 °F (1996)
Min Temperature 3 °F 1 °F -34 °F (1993)
Degree Days  
Heating Degree Days 50 50  
Month to date heating degree days 887  
Since 1 July heating degree days 7000  
Cooling Degree Days 0 0  
Month to date cooling degree days 0  
Year to date cooling degree days 0  
Moisture  
Dew Point 10 °F    
Average Humidity 78    
Maximum Humidity 100    
Minimum Humidity 51    
Precipitation  
Precipitation 0.00 in 0.02 in 0.15 in (2000)
Month to date precipitation 0.21  
Year to date precipitation 0.52  
Sea Level Pressure  
Sea Level Pressure 29.83 in    
Wind  
Wind Speed 9 mph (WNW)    
Max Wind Speed 23 mph    
Max Gust Speed 29 mph    
Visibility 10 miles    
Events Snow    
T = Trace of Precipitation, MM = Missing Value Source: NWS Daily Summary

Daily Weather History Graph

Daily Weather History Graph

Search for Another Location

Airport:

Trip Planner

Search our weather history database for the weather conditions in past years. The results will help you decide how hot, cold, wet, or windy it might be!

Date:

Astronomy

Feb. 17, 2013 Rise Set
Actual Time 7:13 AM MST 5:53 PM MST
Civil Twilight 6:44 AM MST 6:22 PM MST
Nautical Twilight 6:11 AM MST 6:55 PM MST
Astronomical Twilight 5:38 AM MST 7:28 PM MST
Moon 10:57 AM MST (2/17) 1:03 AM MST (2/17)
Length of Visible Light 11h 38m
Length of Day
10h 40m
Waxing Crescent, 49% of the Moon is Illuminated
Feb 17
Waxing Crescent
Feb 17
First Quarter
Feb 25
Full
Mar 4
Last Quarter
Mar 11
New

Hourly Weather History & Observations

Time (MST) Temp. Windchill Dew Point Humidity Pressure Visibility Wind Dir Wind Speed Gust Speed Precip Events Conditions
12:15 AM 8.6 °F -3.7 °F 6.8 °F 92% 29.99 in 10.0 mi West 8.1 mph - N/A   Clear
12:35 AM 8.6 °F 2.0 °F 5.0 °F 85% 29.97 in 10.0 mi West 3.5 mph - N/A   Clear
12:55 AM 5.0 °F -5.6 °F 5.0 °F 100% 29.97 in 10.0 mi NW 5.8 mph - N/A   Clear
1:15 AM 6.8 °F -2.0 °F 5.0 °F 92% 29.97 in 10.0 mi NW 4.6 mph - N/A   Clear
1:35 AM 5.0 °F -4.1 °F 3.2 °F 92% 29.95 in 10.0 mi West 4.6 mph - N/A   Clear
1:55 AM 5.0 °F -5.6 °F 3.2 °F 92% 29.95 in 10.0 mi WNW 5.8 mph - N/A   Clear
2:15 AM 6.8 °F -3.5 °F 5.0 °F 92% 29.94 in 10.0 mi West 5.8 mph - N/A   Scattered Clouds
2:35 AM 5.0 °F -2.1 °F 3.2 °F 92% 29.92 in 10.0 mi WNW 3.5 mph - N/A   Scattered Clouds
2:55 AM 5.0 °F -4.1 °F 3.2 °F 92% 29.91 in 10.0 mi NNW 4.6 mph - N/A   Clear
3:15 AM 3.2 °F -7.8 °F 1.4 °F 92% 29.90 in 10.0 mi WSW 5.8 mph - N/A   Clear
3:35 AM 3.2 °F -9.1 °F 1.4 °F 92% 29.88 in 10.0 mi West 6.9 mph - N/A   Clear
3:55 AM 3.2 °F -7.8 °F 1.4 °F 92% 29.87 in 10.0 mi NW 5.8 mph - N/A   Clear
4:15 AM 5.0 °F -2.1 °F 1.4 °F 85% 29.85 in 10.0 mi North 3.5 mph - N/A   Clear
4:35 AM 5.0 °F - 3.2 °F 92% 29.84 in 10.0 mi Calm Calm - N/A   Clear
4:55 AM 5.0 °F - 3.2 °F 92% 29.84 in 10.0 mi Calm Calm - N/A   Scattered Clouds
5:15 AM 5.0 °F -4.1 °F 3.2 °F 92% 29.83 in 10.0 mi West 4.6 mph - N/A   Mostly Cloudy
5:35 AM 6.8 °F -3.5 °F 5.0 °F 92% 29.83 in 10.0 mi West 5.8 mph - N/A   Scattered Clouds
5:55 AM 6.8 °F -3.5 °F 5.0 °F 92% 29.81 in 10.0 mi WNW 5.8 mph - N/A   Clear
6:15 AM 8.6 °F -2.6 °F 5.0 °F 85% 29.80 in 10.0 mi NW 6.9 mph - N/A   Clear
6:35 AM 6.8 °F -2.0 °F 5.0 °F 92% 29.80 in 10.0 mi West 4.6 mph - N/A   Clear
6:55 AM 6.8 °F -2.0 °F 5.0 °F 92% 29.79 in 10.0 mi West 4.6 mph - N/A   Clear
7:15 AM 8.6 °F - 5.0 °F 85% 29.77 in 10.0 mi Calm Calm - N/A   Clear
7:35 AM 10.4 °F -3.3 °F 8.6 °F 92% 29.78 in 10.0 mi NNW 10.4 mph - N/A   Scattered Clouds
7:55 AM 8.6 °F 2.0 °F 8.6 °F 100% 29.79 in 5.0 mi WSW 3.5 mph - N/A Snow Light Snow
8:15 AM 10.4 °F -0.4 °F 8.6 °F 92% 29.79 in 10.0 mi SW 6.9 mph - N/A   Overcast
8:35 AM 12.2 °F 6.1 °F 10.4 °F 92% 29.79 in 10.0 mi WNW 3.5 mph - N/A   Mostly Cloudy
8:55 AM 14.0 °F - 10.4 °F 86% 29.79 in 10.0 mi Calm Calm - N/A   Clear
9:15 AM 17.6 °F 12.3 °F 14.0 °F 86% 29.78 in 10.0 mi WNW 3.5 mph - N/A   Mostly Cloudy
9:35 AM 17.6 °F 9.3 °F 14.0 °F 86% 29.78 in 10.0 mi NNW 5.8 mph - N/A   Mostly Cloudy
9:55 AM 23.0 °F 14.7 °F 19.4 °F 86% 29.77 in 10.0 mi WNW 6.9 mph - N/A   Mostly Cloudy
10:15 AM 28.4 °F 19.7 °F 19.4 °F 69% 29.77 in 10.0 mi NW 9.2 mph - N/A   Scattered Clouds
10:35 AM 26.6 °F 15.2 °F 17.6 °F 69% 29.77 in 10.0 mi WNW 13.8 mph - N/A   Scattered Clouds
10:55 AM 26.6 °F 15.2 °F 17.6 °F 69% 29.77 in 10.0 mi WNW 13.8 mph - N/A   Scattered Clouds
11:15 AM 28.4 °F 18.5 °F 17.6 °F 64% 29.77 in 10.0 mi NW 11.5 mph - N/A   Mostly Cloudy
11:35 AM 28.4 °F 18.5 °F 15.8 °F 59% 29.77 in 10.0 mi WNW 11.5 mph 19.6 mph N/A   Scattered Clouds
11:55 AM 28.4 °F 17.0 °F 12.2 °F 51% 29.77 in 10.0 mi WNW 15.0 mph 19.6 mph N/A   Scattered Clouds
12:15 PM 28.4 °F 18.5 °F 12.2 °F 51% 29.77 in 10.0 mi West 11.5 mph 20.7 mph N/A   Scattered Clouds
12:35 PM 26.6 °F 15.7 °F 10.4 °F 51% 29.75 in 10.0 mi West 12.7 mph - N/A   Scattered Clouds
12:55 PM 28.4 °F 18.0 °F 12.2 °F 51% 29.75 in 10.0 mi WNW 12.7 mph - N/A   Scattered Clouds
1:15 PM 28.4 °F 16.6 °F 14.0 °F 55% 29.74 in 10.0 mi WNW 16.1 mph 20.7 mph N/A   Scattered Clouds
1:35 PM 28.4 °F 16.6 °F 14.0 °F 55% 29.74 in 10.0 mi WNW 16.1 mph 20.7 mph N/A   Scattered Clouds
1:55 PM 28.4 °F 16.2 °F 14.0 °F 55% 29.75 in 10.0 mi West 17.3 mph 20.7 mph N/A   Scattered Clouds
2:15 PM 28.4 °F 15.8 °F 14.0 °F 55% 29.74 in 10.0 mi West 18.4 mph 24.2 mph N/A   Scattered Clouds
2:35 PM 28.4 °F 15.4 °F 15.8 °F 59% 29.75 in 10.0 mi WNW 19.6 mph 23.0 mph N/A   Mostly Cloudy
2:55 PM 26.6 °F 12.0 °F 17.6 °F 69% 29.75 in 10.0 mi NW 23.0 mph - N/A   Scattered Clouds
3:15 PM 26.6 °F 12.4 °F 17.6 °F 69% 29.77 in 7.0 mi WNW 21.9 mph 26.5 mph N/A   Mostly Cloudy
3:35 PM 26.6 °F 14.3 °F 17.6 °F 69% 29.77 in 7.0 mi WNW 16.1 mph 21.9 mph N/A Snow Light Snow
3:55 PM 24.8 °F 11.9 °F 17.6 °F 74% 29.78 in 10.0 mi WNW 16.1 mph 21.9 mph N/A   Overcast
4:15 PM 26.6 °F 14.3 °F 14.0 °F 59% 29.77 in 10.0 mi WNW 16.1 mph - N/A   Overcast
4:35 PM 24.8 °F 11.5 °F 14.0 °F 64% 29.78 in 10.0 mi WNW 17.3 mph 21.9 mph N/A   Overcast
4:55 PM 24.8 °F 11.1 °F 14.0 °F 64% 29.79 in 10.0 mi WNW 18.4 mph 25.3 mph N/A   Overcast
5:15 PM 23.0 °F 8.3 °F 14.0 °F 68% 29.79 in 10.0 mi WNW 19.6 mph 28.8 mph N/A   Overcast
5:55 PM 23.0 °F 7.6 °F 14.0 °F 68% 29.82 in 10.0 mi WNW 21.9 mph 26.5 mph N/A   Mostly Cloudy
6:15 PM 21.2 °F 7.8 °F 14.0 °F 74% 29.82 in 7.0 mi WNW 15.0 mph 20.7 mph N/A   Overcast
6:35 PM 21.2 °F 7.3 °F 14.0 °F 74% 29.83 in 10.0 mi WNW 16.1 mph - N/A   Mostly Cloudy
6:55 PM 19.4 °F 5.0 °F 12.2 °F 74% 29.84 in 10.0 mi WNW 16.1 mph - N/A   Scattered Clouds
7:15 PM 19.4 °F 7.9 °F 10.4 °F 68% 29.85 in 10.0 mi WNW 10.4 mph - N/A   Clear
7:35 PM 17.6 °F 5.0 °F 10.4 °F 73% 29.86 in 10.0 mi WNW 11.5 mph - N/A   Clear
7:55 PM 17.6 °F 2.7 °F 10.4 °F 73% 29.87 in 10.0 mi WNW 16.1 mph - N/A   Clear
8:15 PM 17.6 °F 3.2 °F 10.4 °F 73% 29.87 in 10.0 mi West 15.0 mph - N/A   Clear
8:35 PM 15.8 °F 3.4 °F 10.4 °F 79% 29.87 in 10.0 mi WNW 10.4 mph - N/A   Clear
8:55 PM 14.0 °F -0.8 °F 10.4 °F 86% 29.88 in 10.0 mi WNW 13.8 mph - N/A   Clear
9:15 PM 14.0 °F -1.4 °F 8.6 °F 79% 29.88 in 10.0 mi WNW 15.0 mph - N/A   Clear
9:35 PM 14.0 °F -2.0 °F 8.6 °F 79% 29.88 in 10.0 mi WNW 16.1 mph - N/A   Clear
9:55 PM 15.8 °F 0.9 °F 8.6 °F 73% 29.88 in 10.0 mi WNW 15.0 mph - N/A   Clear
10:15 PM 15.8 °F 0.9 °F 8.6 °F 73% 29.89 in 10.0 mi WNW 15.0 mph - N/A   Clear
10:35 PM 15.8 °F 0.3 °F 10.4 °F 79% 29.90 in 10.0 mi WNW 16.1 mph - N/A   Clear
10:55 PM 14.0 °F 0.5 °F 8.6 °F 79% 29.90 in 10.0 mi West 11.5 mph - N/A   Clear
11:15 PM 14.0 °F -0.8 °F 8.6 °F 79% 29.90 in 10.0 mi WNW 13.8 mph - N/A   Clear
11:35 PM 14.0 °F -0.2 °F 8.6 °F 79% 29.90 in 10.0 mi WNW 12.7 mph - N/A   Clear
11:55 PM 12.2 °F -1.0 °F 5.0 °F 73% 29.91 in 10.0 mi NNW 10.4 mph - N/A   Clear